When you browse on this site, cookies collect data to enhance your experience and personalize the content and advertising you see.
Visit our Privacy Policy to learn more. By continuing to use the site, you agree to this use of cookies and data.
  • In Hungary
  • List of Countries
  • For 7 days
  • Water Temperature
  • Weather Map
  • News
  • Weather Widgets
  • user-avatar
    Login

    Hourly Weather Eremeevka

    Today, 23 January, Thursday

    Time Temperature Precipitation Wind Pressure Humidity
    00:00 -8°C° 0.1 mm 6 mps 733 mmHg 82%
    01:00 -8°C° 0.1 mm 6 mps 734 mmHg 80%
    02:00 -8°C° 0.1 mm 6 mps 735 mmHg 77%
    03:00 -8°C° 0 mm 5 mps 735 mmHg 77%
    04:00 -8°C° 0 mm 5 mps 735 mmHg 77%
    05:00 -8°C° 0 mm 5 mps 736 mmHg 76%
    06:00 -10°C° 0.1 mm 5 mps 736 mmHg 74%
    07:00 -10°C° 0.1 mm 5 mps 737 mmHg 72%
    08:00 -10°C° 0.1 mm 5 mps 738 mmHg 70%
    09:00 -10°C° 0 mm 5 mps 738 mmHg 67%
    10:00 -8°C° 0 mm 5 mps 738 mmHg 64%
    11:00 -9°C° 0 mm 6 mps 738 mmHg 62%
    12:00 -8°C° 0 mm 6 mps 739 mmHg 61%
    13:00 -8°C° 0 mm 6 mps 739 mmHg 60%
    14:00 -7°C° 0 mm 5 mps 740 mmHg 59%
    15:00 -7°C° 0.1 mm 5 mps 740 mmHg 66%
    16:00 -7°C° 0.1 mm 4 mps 740 mmHg 73%
    17:00 -8°C° 0.1 mm 4 mps 740 mmHg 80%
    18:00 -7°C° 0 mm 3 mps 740 mmHg 81%
    19:00 -7°C° 0 mm 3 mps 741 mmHg 82%
    20:00 -6°C° 0 mm 2 mps 741 mmHg 83%
    21:00 -6°C° 0 mm 2 mps 741 mmHg 82%
    22:00 -6°C° 0 mm 2 mps 741 mmHg 82%
    23:00 -6°C° 0 mm 2 mps 741 mmHg 82%

    Tomorrow, 24 January, Friday

    Time Temperature Precipitation Wind Pressure Humidity
    00:00 -6°C° 0 mm 2 mps 740 mmHg 82%
    01:00 -6°C° 0 mm 2 mps 740 mmHg 83%
    02:00 -6°C° 0 mm 3 mps 740 mmHg 84%
    03:00 -6°C° 0.1 mm 3 mps 739 mmHg 85%
    04:00 -5°C° 0.1 mm 4 mps 738 mmHg 86%
    05:00 -4°C° 0.1 mm 4 mps 737 mmHg 88%
    06:00 -4°C° 0.3 mm 4 mps 736 mmHg 89%
    07:00 -5°C° 0.3 mm 5 mps 735 mmHg 91%
    08:00 -5°C° 0.3 mm 5 mps 735 mmHg 92%
    09:00 -4°C° 0.2 mm 5 mps 734 mmHg 93%
    10:00 -2°C° 0.2 mm 5 mps 733 mmHg 94%
    11:00 -2°C° 0.2 mm 5 mps 733 mmHg 95%
    12:00 -1°C° 0.1 mm 4 mps 732 mmHg 95%
    13:00 -1°C° 0.1 mm 4 mps 732 mmHg 96%
    14:00 0°C° 0.1 mm 4 mps 731 mmHg 96%
    15:00 0°C° 0.2 mm 4 mps 731 mmHg 96%
    16:00 0°C° 0.2 mm 4 mps 731 mmHg 96%
    17:00 0°C° 0.2 mm 4 mps 730 mmHg 96%
    18:00 0°C° 0.1 mm 4 mps 730 mmHg 96%
    19:00 -1°C° 0.1 mm 4 mps 731 mmHg 95%
    20:00 0°C° 0.1 mm 3 mps 731 mmHg 95%
    21:00 -1°C° 0.1 mm 4 mps 731 mmHg 94%
    22:00 -1°C° 0.1 mm 4 mps 731 mmHg 93%
    23:00 -1°C° 0.1 mm 4 mps 731 mmHg 92%

    Day after tomorrow, 25 January, Saturday

    Time Temperature Precipitation Wind Pressure Humidity
    00:00 -2°C° 0 mm 4 mps 731 mmHg 91%
    01:00 -2°C° 0 mm 4 mps 731 mmHg 89%
    02:00 -2°C° 0 mm 4 mps 731 mmHg 88%
    03:00 -3°C° 0 mm 4 mps 731 mmHg 88%
    04:00 -3°C° 0 mm 4 mps 730 mmHg 88%
    05:00 -3°C° 0 mm 4 mps 730 mmHg 89%
    06:00 -3°C° 0 mm 4 mps 730 mmHg 88%
    07:00 -3°C° 0 mm 4 mps 729 mmHg 87%
    08:00 -3°C° 0 mm 4 mps 729 mmHg 86%
    09:00 -4°C° 0.1 mm 5 mps 729 mmHg 84%
    10:00 -3°C° 0.1 mm 6 mps 729 mmHg 82%
    11:00 -3°C° 0.1 mm 6 mps 728 mmHg 81%
    12:00 -3°C° 0.2 mm 6 mps 728 mmHg 76%
    13:00 -3°C° 0.2 mm 6 mps 728 mmHg 72%
    14:00 -3°C° 0.2 mm 6 mps 729 mmHg 68%
    15:00 -4°C° 0 mm 5 mps 729 mmHg 70%
    16:00 -4°C° 0 mm 5 mps 729 mmHg 72%
    17:00 -5°C° 0 mm 5 mps 730 mmHg 74%
    18:00 -5°C° 0 mm 5 mps 730 mmHg 76%
    19:00 -5°C° 0 mm 6 mps 731 mmHg 78%
    20:00 -5°C° 0 mm 6 mps 732 mmHg 80%
    21:00 -5°C° 0 mm 6 mps 732 mmHg 79%
    22:00 -5°C° 0 mm 6 mps 733 mmHg 78%
    23:00 -6°C° 0 mm 6 mps 734 mmHg 77%

    26 January, Sunday

    Time Temperature Precipitation Wind Pressure Humidity
    00:00 -6°C° 0 mm 6 mps 735 mmHg 77%
    01:00 -6°C° 0 mm 5 mps 735 mmHg 77%
    02:00 -6°C° 0 mm 5 mps 736 mmHg 77%
    03:00 -6°C° 0 mm 5 mps 737 mmHg 78%
    04:00 -7°C° 0 mm 4 mps 738 mmHg 80%
    05:00 -7°C° 0 mm 4 mps 738 mmHg 81%
    06:00 -7°C° 0 mm 4 mps 739 mmHg 82%
    07:00 -7°C° 0 mm 4 mps 740 mmHg 83%
    08:00 -7°C° 0 mm 4 mps 740 mmHg 84%
    09:00 -7°C° 0 mm 4 mps 741 mmHg 79%
    10:00 -5°C° 0 mm 4 mps 742 mmHg 74%
    11:00 -4°C° 0 mm 4 mps 742 mmHg 69%
    12:00 -4°C° 0 mm 4 mps 743 mmHg 69%
    13:00 -4°C° 0 mm 4 mps 743 mmHg 70%
    14:00 -4°C° 0 mm 4 mps 743 mmHg 70%
    15:00 -4°C° 0 mm 3 mps 744 mmHg 76%
    16:00 -4°C° 0 mm 2 mps 744 mmHg 82%
    17:00 -3°C° 0 mm 1 mps 745 mmHg 88%
    18:00 -3°C° 0 mm 1 mps 745 mmHg 89%
    19:00 -3°C° 0 mm 1 mps 745 mmHg 90%
    20:00 -4°C° 0 mm 0 mps 746 mmHg 91%
    21:00 -3°C° 0 mm 1 mps 746 mmHg 90%
    22:00 -3°C° 0 mm 1 mps 746 mmHg 89%
    23:00 -5°C° 0 mm 2 mps 746 mmHg 89%

    27 January, Monday

    Time Temperature Precipitation Wind Pressure Humidity
    00:00 -5°C° 0.1 mm 2 mps 745 mmHg 91%
    01:00 -5°C° 0.1 mm 3 mps 745 mmHg 93%
    02:00 -5°C° 0.1 mm 3 mps 744 mmHg 95%
    03:00 -4°C° 0.3 mm 3 mps 744 mmHg 95%
    04:00 -4°C° 0.3 mm 3 mps 743 mmHg 96%
    05:00 -4°C° 0.3 mm 3 mps 743 mmHg 96%
    06:00 -2°C° 0.4 mm 3 mps 742 mmHg 97%
    07:00 -2°C° 0.4 mm 3 mps 742 mmHg 97%
    08:00 -1°C° 0.4 mm 3 mps 742 mmHg 97%
    09:00 -1°C° 0.2 mm 3 mps 742 mmHg 97%
    10:00 -1°C° 0.2 mm 4 mps 742 mmHg 97%
    11:00 -1°C° 0.2 mm 4 mps 742 mmHg 97%
    12:00 -1°C° 0.1 mm 4 mps 741 mmHg 97%
    13:00 -1°C° 0.1 mm 4 mps 741 mmHg 97%
    14:00 0°C° 0.1 mm 4 mps 740 mmHg 97%
    15:00 -1°C° 0.1 mm 4 mps 740 mmHg 97%
    16:00 -1°C° 0.1 mm 4 mps 740 mmHg 97%
    17:00 -1°C° 0.1 mm 4 mps 740 mmHg 97%
    18:00 -1°C° 0.3 mm 4 mps 739 mmHg 97%
    19:00 -1°C° 0.3 mm 4 mps 739 mmHg 97%
    20:00 -2°C° 0.3 mm 4 mps 738 mmHg 97%
    21:00 0°C° 0.1 mm 3 mps 738 mmHg 97%
    22:00 0°C° 0.1 mm 3 mps 738 mmHg 97%
    23:00 0°C° 0.1 mm 3 mps 737 mmHg 97%

    28 January, Tuesday

    Time Temperature Precipitation Wind Pressure Humidity
    00:00 -1°C° 0.3 mm 3 mps 737 mmHg 97%
    01:00 -1°C° 0.3 mm 3 mps 736 mmHg 97%
    02:00 -1°C° 0.3 mm 3 mps 736 mmHg 97%
    03:00 -1°C° 0.4 mm 3 mps 735 mmHg 97%
    04:00 0°C° 0.4 mm 3 mps 735 mmHg 97%
    05:00 0°C° 0.4 mm 3 mps 735 mmHg 97%
    06:00 -1°C° 0.3 mm 4 mps 735 mmHg 97%
    07:00 -1°C° 0.3 mm 4 mps 736 mmHg 96%
    08:00 -1°C° 0.3 mm 5 mps 736 mmHg 95%
    09:00 -1°C° 0 mm 5 mps 737 mmHg 91%
    10:00 -1°C° 0 mm 5 mps 737 mmHg 86%
    11:00 -1°C° 0 mm 4 mps 738 mmHg 82%
    12:00 -1°C° 0 mm 4 mps 738 mmHg 82%
    13:00 -1°C° 0 mm 4 mps 738 mmHg 82%
    14:00 0°C° 0 mm 3 mps 739 mmHg 82%
    15:00 -1°C° 0 mm 3 mps 739 mmHg 85%
    16:00 -2°C° 0 mm 2 mps 739 mmHg 89%
    17:00 -3°C° 0 mm 2 mps 739 mmHg 92%
    18:00 -3°C° 0 mm 2 mps 739 mmHg 92%
    19:00 -4°C° 0 mm 3 mps 739 mmHg 91%
    20:00 -4°C° 0 mm 3 mps 739 mmHg 90%
    21:00 -3°C° 0 mm 4 mps 738 mmHg 91%
    22:00 -3°C° 0 mm 4 mps 738 mmHg 91%
    23:00 -3°C° 0 mm 4 mps 737 mmHg 92%
    Show more